User: anonymous   Login
Location: Unnamed
(47.6264°N, 122.3366°W)
Time: 15:42:10
(UTC-07:00)
Language:

ELYUSIUM/LOWER FREE FLYE - Orbit

View from above orbital plane
View from above orbital plane
View from above satellite
View from above satellite

Ground track
Ground track

The orbit data is extracted from the following two-line orbital elements,

1 43760U 18099C   21163.77925660  .00000379  00000-0  38504-4 0  9995
2 43760  97.6702 235.1621 0015005  66.2658 294.0136 14.96318125137812
Epoch (UTC): 12 June 2021 18:42:07
Eccentricity: 0.0015005
inclination: 97.6702°
perigee height: 568 km
apogee height: 589 km
right ascension of ascending node: 235.1621°
argument of perigee: 66.2658°
revolutions per day: 14.96318125
mean anomaly at epoch: 294.0136°
orbit number at epoch: 13781

The dashed part of the orbit path shows where the satellite is in the earth's shadow,  

DLR